Regional Weather Roundup
Issued by NWS Raleigh/Durham, NC

Home | Current Version | Previous Version | Text Only | Print | Product List | Glossary On
Versions: 1 2 3 4 5 6 7 8 9 10 11 12 13 14 15 16 17 18 19 20 21 22 23 24 25 26 27 28 29 30 31 32 33 34 35 36 37 38 39 40 41 42 43 44 45 46 47 48 49 50
000
ASUS42 KRAH 261410
RWRRAH
NORTH CAROLINA WEATHER ROUNDUP
NATIONAL WEATHER SERVICE RALEIGH NC
1000 AM EDT SUN APR 26 2015

NOTE: "FAIR" INDICATES FEW OR NO CLOUDS BELOW 12,000 FEET WITH NO
SIGNIFICANT WEATHER AND/OR OBSTRUCTIONS TO VISIBILITY.

NCZ001-053-055-056-065-067-261500-
WESTERN NORTH CAROLINA

CITY           SKY/WX    TMP DP  RH WIND       PRES   REMARKS
ASHEVILLE      PTSUNNY   63  54  72 N9        29.66S
JEFFERSON      DRIZZLE   53  53 100 N5        29.65R
MORGANTON      FOG       48  48 100 CALM      29.71R VSB 3/4
HICKORY        CLOUDY    47  46  97 NE7       29.67R
RUTHERFORDTON  FOG       53  53 100 E3        29.65S VSB 1/2
MOUNT AIRY       N/A     46  43  88 NE8       29.72R
BOONE          DRIZZLE   54  50  84 NW10      29.66R
$$

NCZ021-022-025-041-071-084-088-261500-
CENTRAL NORTH CAROLINA

CITY           SKY/WX    TMP DP  RH WIND       PRES   REMARKS
CHARLOTTE      CLOUDY    50  47  89 NE8       29.67R FOG
GREENSBORO     CLOUDY    44  42  93 NE8       29.70R
WINSTON-SALEM  CLOUDY    44  41  89 NE7       29.70R
RALEIGH-DURHAM CLOUDY    48  46  93 NE9       29.69R
FORT BRAGG     CLOUDY    49  47  93 N6        29.66S
FAYETTEVILLE   CLOUDY    50  48  93 N12       29.67R FOG
BURLINGTON     LGT RAIN  46  43  89 NE7       29.70R
LAURINBURG     CLOUDY    52  49  89 N10       29.67R
$$

NCZ011-015-027-028-043-044-047-080-103-261500-
NORTHEASTERN NORTH CAROLINA

CITY           SKY/WX    TMP DP  RH WIND       PRES   REMARKS
ROCKY MT-WILSO CLOUDY    49  47  93 N12       29.68R FOG
GREENVILLE     CLOUDY    48  48 100 NE8       29.70R
WASHINGTON     CLOUDY    48  47  95 N8        29.67R FOG
ELIZABETH CITY LGT RAIN  48  46  93 N10       29.66R
MANTEO         LGT RAIN  50  49  95 N15G21    29.62R
CAPE HATTERAS  CLOUDY    52  51  97 NE9G18    29.58R
$$

NCZ078-087-090-091-093-098-101-261500-
SOUTHEASTERN NORTH CAROLINA

CITY           SKY/WX    TMP DP  RH WIND       PRES   REMARKS
LUMBERTON      CLOUDY    53  50  89 N12       29.65R FOG
GOLDSBORO      CLOUDY    50  50  98 N7        29.65R
KINSTON        CLOUDY    52  50  93 N9        29.66R FOG
KENANSVILLE    CLOUDY    49  49  97 N6        29.66R FOG
NEW BERN       LGT RAIN  52  50  93 N12       29.65R FOG
CHERRY POINT   CLOUDY    54  52  93 N10       29.63R
BEAUFORT       CLOUDY    56  55  97 N9        29.60S
JACKSONVILLE   CLOUDY    54  52  93 N12       29.62R
WILMINGTON     CLOUDY    60  58  92 N7        29.61R FOG
$$



USA.gov is the U.S. government's official web portal to all federal, state and local government web resources and services.